User: anonymous   Login
Location: Unspecified
(0.0000°N, 0.0000°E)
Time: 11:28:26
(UTC+01:00)
Language:

Hamsat - Orbit

View from above orbital plane
View from above orbital plane
View from above satellite
View from above satellite

Ground track
Ground track

The orbit data is extracted from the following two-line orbital elements,

1 28650U 05017B   16037.88511833  .00001294  00000-0  14596-3 0  9992
2 28650  97.5958  25.0715 0023315 338.0380  21.9835 14.88037409582349
Epoch (UTC): 06 February 2016 21:14:34
Eccentricity: 0.0023315
inclination: 97.5958°
perigee height: 588 km
apogee height: 620 km
right ascension of ascending node: 25.0715°
argument of perigee: 338.0380°
revolutions per day: 14.88037409
mean anomaly at epoch: 21.9835°
orbit number at epoch: 58234

The dashed part of the orbit path shows where the satellite is in the earth's shadow,  

DLR